EW1033 Weather Reports


Display with metric or nautical units.
time (UTC)temp
F
wind
direction
speed
MPH
gust
MPH
rain 1hr
in
rain 24hr
in
rain mn
in
humidity
%
barometer
mb
20260507003039 79 0.0 0.0 0.00 0.00 0.00 21 1010.4
20260507001537 80 0.0 0.0 0.00 0.00 0.00 21 1010.2
20260507000036 79 0.0 0.0 0.00 0.00 0.00 20 1010.3
20260506234535 79 0.0 0.0 0.00 0.00 0.00 21 1010.4
20260506233034 80 0.0 0.0 0.00 0.00 0.00 21 1010.3
20260506231533 80 0.0 0.0 0.00 0.00 0.00 22 1010.6
20260506230029 81 0.0 0.0 0.00 0.00 0.00 22 1010.6
20260506224530 79 0.0 0.0 0.00 0.00 0.00 23 1010.8
20260506223026 79 0.0 0.0 0.00 0.00 0.00 23 1010.8
20260506221524 80 0.0 0.0 0.00 0.00 0.00 22 1010.9
20260506220026 80 0.0 0.0 0.00 0.00 0.00 24 1011.1
20260506214517 79 0.0 0.0 0.00 0.00 0.00 25 1011.3
20260506213017 78 0.0 0.0 0.00 0.00 0.00 25 1011.5
20260506211514 78 0.0 0.0 0.00 0.00 0.00 27 1011.7
20260506210012 79 0.0 0.0 0.00 0.00 0.00 26 1011.8
20260506204511 77 0.0 0.0 0.00 0.00 0.00 26 1012.1
20260506203010 78 0.0 0.0 0.00 0.00 0.00 26 1012.2
20260506201509 77 0.0 0.0 0.00 0.00 0.00 29 1012.4
20260506200105 77 0.0 0.0 0.00 0.00 0.00 28 1012.5
20260506194504 75 0.0 0.0 0.00 0.00 0.00 30 1012.8
20260506193005 75 0.0 0.0 0.00 0.00 0.00 29 1012.9
20260506191508 75 0.0 0.0 0.00 0.00 0.00 29 1013.2
20260506190100 73 0.0 0.0 0.00 0.00 0.00 30 1013.4
20260506184602 74 0.0 0.0 0.00 0.00 0.00 30 1013.5
20260506183056 73 0.0 0.0 0.00 0.00 0.00 30 1013.6
20260506181555 72 0.0 0.0 0.00 0.00 0.00 29 1013.9
20260506180051 73 0.0 0.0 0.00 0.00 0.00 32 1013.9
20260506174548 71 0.0 0.0 0.00 0.00 0.00 33 1014.0
20260506173104 70 0.0 0.0 0.00 0.00 0.00 33 1014.0
20260506171553 70 0.0 0.0 0.00 0.00 0.00 36 1014.0
20260506170037 69 0.0 0.0 0.00 0.00 0.00 39 1014.1
20260506164535 68 0.0 0.0 0.00 0.00 0.00 42 1014.1
20260506163046 68 0.0 0.0 0.00 0.00 0.00 43 1013.9
20260506161527 66 0.0 0.0 0.00 0.00 0.00 47 1013.9
20260506160025 65 0.0 0.0 0.00 0.00 0.00 48 1014.0
20260506154527 64 0.0 0.0 0.00 0.00 0.00 50 1013.7
20260506153020 63 0.0 0.0 0.00 0.00 0.00 52 1013.9
20260506151517 62 0.0 0.0 0.00 0.00 0.00 55 1013.9
20260506150013 62 0.0 0.0 0.00 0.00 0.00 58 1013.9
20260506144510 60 0.0 0.0 0.00 0.00 0.00 58 1013.9
20260506143014 58 0.0 0.0 0.00 0.00 0.00 63 1014.0
20260506141506 57 0.0 0.0 0.00 0.00 0.00 65 1014.0
20260506140002 56 0.0 0.0 0.00 0.00 0.00 68 1013.9
20260506134600 55 0.0 0.0 0.00 0.00 0.00 71 1013.9
20260506133102 53 0.0 0.0 0.00 0.00 0.00 78 1013.9
20260506131557 51 0.0 0.0 0.00 0.00 0.00 86 1013.7
20260506130054 49 0.0 0.0 0.00 0.01 0.00 88 1013.5
20260506124549 48 0.0 0.0 0.00 0.01 0.00 88 1013.4
20260506123047 48 0.0 0.0 0.00 0.01 0.00 87 1013.3
20260506121545 48 0.0 0.0 0.00 0.01 0.00 87 1013.1
20260506120047 49 0.0 0.0 0.00 0.01 0.00 86 1012.9
20260506114544 49 0.0 0.0 0.00 0.01 0.00 85 1012.8
20260506113037 50 0.0 0.0 0.00 0.01 0.00 83 1012.7
20260506111540 51 0.0 0.0 0.00 0.01 0.00 82 1012.6
20260506110033 51 0.0 0.0 0.00 0.05 0.00 80 1012.5
20260506104529 52 0.0 0.0 0.00 0.05 0.00 80 1012.5
20260506103028 52 0.0 0.0 0.00 0.05 0.00 79 1012.3
20260506101526 53 0.0 0.0 0.00 0.05 0.00 79 1012.2
20260506100022 53 0.0 0.0 0.00 0.09 0.00 79 1012.0
20260506094521 53 0.0 0.0 0.00 0.09 0.00 77 1011.9
20260506093034 54 0.0 0.0 0.00 0.09 0.00 75 1011.9
20260506091518 54 0.0 0.0 0.00 0.09 0.00 74 1011.7
20260506090013 55 0.0 0.0 0.00 0.13 0.00 72 1011.7
20260506084515 56 0.0 0.0 0.00 0.13 0.00 69 1011.9
20260506083008 57 0.0 0.0 0.00 0.13 0.00 67 1011.8
20260506081508 58 0.0 0.0 0.00 0.13 0.00 64 1011.9
20260506073005 58 0.0 0.0 0.00 0.18 0.00 61 1012.0
20260506071600 58 0.0 0.0 0.00 0.18 0.00 61 1012.0
20260506061602 62 0.0 0.0 0.00 0.24 0.18 49 1011.4
20260506044601 64 0.0 0.0 0.00 0.26 0.18 49 1010.9
20260506043054 64 0.0 0.0 0.00 0.26 0.18 46 1010.8
20260506041605 64 0.0 0.0 0.00 0.26 0.18 44 1010.6
20260506040054 64 0.0 0.0 0.00 0.28 0.18 43 1010.2
20260506034550 65 0.0 0.0 0.00 0.28 0.18 41 1010.1
20260506033052 66 0.0 0.0 0.00 0.28 0.18 38 1009.9
20260506031549 66 0.0 0.0 0.00 0.28 0.18 38 1009.7
20260506030047 67 0.0 0.0 0.00 0.35 0.18 37 1009.6
20260506024547 67 0.0 0.0 0.00 0.35 0.18 36 1009.3
20260506023054 68 0.0 0.0 0.00 0.35 0.18 36 1009.0
20260506021546 69 0.0 0.0 0.00 0.35 0.18 35 1008.7
20260506020114 69 0.0 0.0 0.00 0.40 0.18 35 1008.5
20260506014544 71 0.0 0.0 0.00 0.40 0.18 34 1008.3
20260506013044 72 0.0 0.0 0.00 0.40 0.18 32 1008.2
20260506011548 73 0.0 0.0 0.00 0.40 0.18 29 1008.1
20260506010043 74 0.0 0.0 0.00 0.41 0.18 30 1007.8
20260506004545 74 0.0 0.0 0.00 0.41 0.18 29 1007.8